#timestamp,LO_Frequency,Hit,StdDev 
1572382815.2,286047010.7,Y
1572382835.9,286047002.8,P
1572382855.7,286047001.2,N
1572382875.6,286047000.6,N
1572382895.4,286046999.5,N
1572382915.2,286046998.5,N
1572382935.1,286047000.9,N
1572382936.0,286047000.9,N
1572382955.8,286047001.6,N
1572382975.7,286047001.4,N
1572382995.5,286047002.4,N
1572383015.3,286047000.1,N
1572383035.2,286047000.7,N
1572383055.9,286047002.3,N
1572383075.7,286047001.7,N
1572383095.6,286047004.1,N
1572383115.4,286047001.5,N
1572383135.3,286047005.5,Y
1572383155.1,286047002.4,P
1572383156.0,286047002.4,P
1572383175.8,286047002.6,P
1572383195.7,286047004.4,Y
1572383215.5,286047000.2,P
1572383235.4,286047002.5,N
1572383255.2,286047002.6,N
1572383275.0,286047003.8,Y
1572383275.9,286047003.8,P
1572383295.8,286047000.1,N
1572383315.6,286047002.0,N
1572383335.5,286047002.5,N
1572383355.3,286047001.9,N
1572383375.1,286047001.4,N
1572383395.9,286047004.7,Y
1572383415.7,286047004.2,P
1572383435.5,286047003.3,N
1572383455.4,286047005.3,P
1572383475.2,286047006.4,Y
1572383495.1,286047002.9,P
1572383496.0,286047002.9,P
1572383515.8,286047003.6,P
1572383535.7,286047002.0,Y
1572383555.5,286047000.4,P
1572383575.3,286047000.1,N
1572383595.2,286046998.7,N
1572383615.0,286047002.3,N
1572383615.9,286047002.3,N
1572383635.7,286047000.1,N
1572383655.6,286047001.0,N
1572383675.4,286046998.7,N
1572383695.3,286046999.2,N
1572383715.1,286046995.2,Y
1572383735.8,286046991.8,P
1572383755.7,286046992.5,N
1572383775.5,286046996.3,N
1572383795.4,286046994.6,N
1572383815.2,286046992.3,N
1572383835.0,286046991.9,N
1572383835.9,286046991.9,N
1572383855.8,286046994.1,N
1572383875.6,286046993.4,N
1572383895.4,286046996.4,N
1572383915.3,286046997.5,N
1572383935.1,286046996.5,N
1572383955.9,286047000.7,N
1572383975.7,286047001.2,N
1572383995.5,286047001.8,N
1572384015.4,286047003.2,N
1572384035.2,286047006.0,N
1572384055.0,286047005.5,N
1572384055.9,286047005.5,N
1572384075.8,286047004.9,N
1572384095.6,286047004.5,N
1572384115.5,286047008.9,N
1572384135.3,286047009.2,N
1572384155.1,286047006.1,N
1572384175.9,286047007.5,N
1572384195.7,286047007.6,N
1572384215.5,286047007.4,N
1572384235.4,286047002.9,N
1572384255.2,286047003.7,N
1572384275.1,286047004.6,N
1572384276.0,286047004.6,N
1572384295.8,286047006.8,N
1572384315.6,286047008.8,N
1572384335.5,286047010.1,N
1572384355.3,286047006.3,N
1572384375.2,286047007.8,N
1572384395.9,286047008.5,N
1572384415.7,286047008.2,N
1572384435.6,286047012.4,N
1572384455.4,286047011.5,N
1572384475.2,286047013.4,Y
1572384495.1,286047006.2,P
1572384496.0,286047006.2,P
1572384515.8,286047008.0,P
1572384535.7,286047010.0,Y
1572384555.5,286047003.7,P
1572384575.3,286047004.7,P
1572384595.2,286047005.3,P
1572384615.0,286047007.4,Y
1572384615.9,286047007.4,P
1572384635.8,286047004.4,P
1572384655.6,286047005.2,P
1572384675.4,286047005.1,Y
1572384695.3,286047004.4,P
1572384715.1,286047005.7,P
1572384735.8,286047006.9,P
1572384755.7,286047008.7,Y
1572384775.5,286047003.2,P
1572384795.4,286047003.6,N
1572384815.2,286047004.4,P
1572384835.0,286047006.0,Y
1572384835.9,286047006.0,P
1572384855.8,286047002.4,N
1572384875.6,286047002.8,N
1572384895.5,286046997.3,N
1572384915.3,286047000.6,N
1572384935.1,286047002.1,N
1572384955.9,286047002.4,N
1572384975.7,286047003.1,N
1572384995.5,286047004.5,N
1572385015.4,286047007.5,Y
1572385035.2,286047004.3,P
1572385055.1,286047003.1,P
1572385056.0,286047003.1,P
1572385075.8,286047000.0,N
1572385095.6,286046996.6,N
1572385115.5,286046996.6,N
1572385135.3,286046997.1,N
1572385155.1,286047000.7,N
1572385175.9,286047000.6,N
1572385195.7,286047002.3,N
1572385215.6,286047002.1,N
1572385235.4,286046999.7,N
1572385255.2,286047001.4,N
1572385275.1,286047001.6,N
1572385276.0,286047001.6,N
1572385295.8,286047000.4,N
1572385315.6,286047001.4,N
1572385335.5,286047002.4,N
1572385355.3,286047004.2,N
1572385375.2,286047001.9,N
1572385395.9,286047005.1,N
1572385415.7,286047005.2,N
1572385435.6,286047004.8,N
1572385455.4,286047005.1,N
1572385475.2,286047004.8,N
1572385495.1,286047003.4,N
1572385496.0,286047003.4,N
1572385515.8,286047003.2,N
1572385535.7,286047005.1,N
1572385555.5,286047003.6,N
1572385575.3,286047004.7,N
1572385595.2,286047006.3,N
1572385615.0,286047007.4,N
1572385615.9,286047007.4,N
1572385635.8,286047008.5,Y
1572385655.6,286047007.3,P
1572385675.4,286047005.8,N
1572385695.3,286047003.4,N
1572385715.1,286047003.2,N
1572385735.8,286047003.5,N
1572385755.7,286047007.2,Y
1572385775.5,286047005.6,P
1572385795.4,286047006.2,P
1572385815.2,286047012.2,P
1572385835.0,286047013.5,Y
1572385835.9,286047013.5,P
1572385855.8,286047005.4,N
1572385875.6,286047005.3,N
1572385895.4,286047003.0,N
1572385915.3,286047003.6,N
1572385935.1,286047005.2,N
1572385955.9,286047005.8,N
1572385975.7,286047005.8,N
1572385995.5,286047005.9,N
1572386015.4,286047003.7,N
1572386035.2,286047002.9,N
1572386055.0,286047003.9,N
1572386056.0,286047003.9,N
1572386075.8,286047004.8,N
1572386095.6,286047003.0,N
1572386115.5,286047001.4,N
1572386135.3,286047004.3,N
1572386155.1,286047001.4,N
1572386175.9,286047001.4,N
1572386195.7,286047003.5,N
1572386215.6,286047004.6,N
1572386235.4,286047007.0,N
1572386255.2,286047007.6,Y
1572386275.1,286047003.0,P
1572386276.0,286047003.0,P
1572386295.8,286047006.0,P
1572386315.6,286047009.1,Y
1572386335.5,286047002.4,P
1572386355.3,286047001.6,N
1572386375.2,286046999.7,N
1572386395.9,286046998.5,N
